ONEWEB-0059, 45162

Orbit data source: Space-Track

ONEWEB-0059, 45162 is a payload satellite owned by One Web (UK) in LEO that was launched on Thu, 06 Feb 2020 UTC via a SOYUZ-2-1B launch vehicle from the Tyuratam Missile And Space Complex (TTMTR). Payload-class satellites include a variety of spacecraft equipped with specific instruments for various scientific and technological missions. These include communications satellites like Starlink; space stations such as the ISS; scientific satellites like the Hubble; Earth observation satellites from companies like Planet Labs, Umbra, and HawkEye 360; GPS; miniature CubeSats for education and research; and military/defense satellites.

Loading next visibility...
Identifier
45162, 2020-008AH
Orbit
LEO
Last TLE update
13 hours ago
Origin
Manufacturer
One Web
Mission
Operational Commercial Communications
Bus & Motor
ARROW, Unknown motor
Mass
148 kg wet, ~140 kg dry
Launch date (UTC)
2020-02-06 (5 years ago)
Launch vehicle
SOYUZ-2-1B
Launch site
Tyuratam Missile And Space Complex (TTMTR)
Object type
Payload
Rocket body
Debris
Shape & HBR
Trap Box + 2 Pan, 5 m
Radar Cross Section
2.957 m², Large (>1 m²)

Expand to show TLE details & history

TLE from 13 hours ago
0 ONEWEB-0059
1 45162U 20008AH  25181.80999585 -.00000473  00000-0 -13920-2 0  9991
2 45162  87.8825 106.3596 0002072  79.6385 280.4976 13.10370241262308
Epoch: 2025-06-30T19:26Z
TLE epoch observation values (Epoch: 2025-06-30T19:26:23.641Z)
Latitude
-0°
Longitude
-104.35337°
Altitude
1,224.328 km
Speed
7.242 km/s
True Right ascension
07h 05m 26s
True Declination
0° 00' 00"
Sunlit
Object was in daylight at epoch
Visualization orbit readout
Latitude
86.19884°
Longitude
41.91535°
Altitude
1,234.041 km
Speed
7.245 km/s
Apparent Right ascension
08h 42m 47s
Apparent Declination
37° 13' 06"
Sunlit
Object is in daylight
Visualization observer readout
Local Sidereal Time
20:22:39
Azimuth
355.896° N
Elevation
-12.727°
Doppler factor
1
Orbital elements
Apogee altitude
1,220.421 km
Perigee altitude
1,217.273 km
Semi-major axis
7,596.984 km
Eccentricity
0.00021
Inclination
87.8825°
RAAN
106.3596°
Arg. of periapsis
79.6385°
True anomaly
Unknown
Mean anomaly
280.4976°
Eccentric anomaly
Unknown
Mean motion
3.27779 °/min
Orbital period
109.83 mins
BSTAR
-0.001392
Loading maneuver chart data...
Loading SW <> Apogee altitude chart data...
Loading historical data...
Loading historical data...
Loading historical data...
Loading historical data...
Loading historical data...
Loading historical data...
Loading historical data...

ONEWEB-0059 Visibility forecast

Observer location: undefined°, undefined°

Span
Click to sort rows by Start time (UTC) header in descending order
Start Az.
Max El. time (UTC)
Max El. Az.
Max El.
End time (UTC)
End Az.
9 mins2025-07-01 08:53:29.698Z325.419° NNW2025-07-01 08:57:29.698Z291.315° WNW17.572°2025-07-01 09:02:29.698Z247.416° WSW
5 mins2025-07-01 17:37:29.698Z85.224° E2025-07-01 17:39:29.698Z67.646° E13.577°2025-07-01 17:42:29.698Z42.971° NE
12 mins2025-07-01 19:22:29.698Z175.76° S2025-07-01 19:27:29.698Z153.946° SSE44.493°2025-07-01 19:34:29.698Z1.858° NNE
6 mins2025-07-01 21:16:29.698Z265.833° W2025-07-01 21:18:29.698Z283.95° WNW15.483°2025-07-01 21:22:29.698Z319.063° NNW
13 mins2025-07-02 06:52:29.698Z6.354° NNE2025-07-02 06:58:29.698Z101.363° ESE43.167°2025-07-02 07:05:29.698Z171.393° S
|